DEIMOS-2

Last updated on Sat Apr 13 2024 01:02:24 GMT+0100 (British Summer Time)

1 40013U 14033D 24103.58274808 .00002345 00000+0 25920-3 0 9995 2 40013 97.6889 352.2224 0002498 88.5071 271.6432 14.88328594519135
UTC large
Height (km)
Speed (km/s)
/
Latitude / Longitude
Inclination (degrees)
Orbital Period (minutes)
Azimuth
Elevation
Range (km)
Doppler Factor

Next 0 passes for location: London (51.5072 / 0.1276)

Sorry there are no passes over London.